Location: Beacon Field Observatory
(38.7700°N, 77.0829°W)
Time: 01:30:39
(UTC-05:00)

UKube-1 - Pass Details

Date: 12 December 2019
Orbit: 613 x 619 km, 98.5° (Epoch: 27 January)

Event Time Altitude Azimuth Distance (km) Brightness Sun altitude
Rises 18:17:48 0° 3° (N) 2,899 ? -17.1°
Reaches altitude 10° 18:20:08 10° 354° (N) 1,989 ? -17.6°
Maximum altitude 18:24:01 34° 290° (WNW) 1,031 ? -18.3°
Drops below altitude 10° 18:27:54 10° 225° (SW) 1,978 ? -19.0°
Sets 18:30:13 0° 216° (SW) 2,879 ? -19.5°
